This is the latest recevied weather packets stored in our database for station/object WX7FGZ-6. If no packets are shown the sender has not sent any weather packets the latest 10 day(s).
| Time | Temp. | Humidity | Pressure | Rain* | Wind** | Luminosity | Snow |
|---|---|---|---|---|---|---|---|
| 1777393903 | -0.56° C | 26% | 1019.5 hPa | 0 mm | - | - | - |
| 1777393602 | -0.56° C | 29% | 1019.6 hPa | 0 mm | - | - | - |
| 1777393301 | -0.56° C | 31% | 1019.6 hPa | 0 mm | - | - | - |
| 1777393001 | -0.56° C | 24% | 1019.7 hPa | 0 mm | - | - | - |
| 1777392400 | -1.11° C | 23% | 1020.3 hPa | 0 mm | - | - | - |
| 1777392100 | -1.67° C | 24% | 1020.6 hPa | 0 mm | - | - | - |
| 1777391854 | -1.67° C | 36% | 1020.9 hPa | 0 mm | - | - | - |
| 1777391800 | -1.67° C | 36% | 1020.9 hPa | 0 mm | - | - | - |
| 1777391501 | -1.67° C | 24% | 1021.2 hPa | 0 mm | - | - | - |
| 1777391202 | -1.67° C | 23% | 1021.7 hPa | 0 mm | - | - | - |
| 1777390902 | -1.67° C | 27% | 1021.8 hPa | 0 mm | - | - | - |
| 1777390646 | -1.67° C | 24% | 1021.9 hPa | 0 mm | - | - | - |
| 1777390600 | -1.67° C | 24% | 1021.9 hPa | 0 mm | - | - | - |
| 1777390300 | -1.67° C | 22% | 1022 hPa | 0 mm | - | - | - |
| 1777390000 | -1.67° C | 19% | 1021.9 hPa | 0 mm | - | - | - |
| 1777389700 | -1.67° C | 23% | 1021.9 hPa | 0 mm | - | - | - |
| 1777389401 | -1.67° C | 19% | 1021.7 hPa | 0 mm | - | - | - |
| 1777389101 | -1.67° C | 20% | 1021.6 hPa | 0 mm | - | - | - |
| 1777388801 | -1.67° C | 18% | 1021.1 hPa | 0 mm | - | - | - |
| 1777388108 | -2.22° C | 18% | 1019.9 hPa | 0 mm | - | - | - |
| 1777387808 | -2.78° C | 16% | 1019.2 hPa | 0 mm | - | - | - |
| 1777387507 | -2.78° C | 16% | 1018.6 hPa | 0 mm | - | - | - |
| 1777387207 | -3.33° C | 17% | 1018.3 hPa | 0 mm | - | - | - |
| 1777386907 | -3.33° C | 19% | 1018.1 hPa | 0 mm | - | - | - |
| 1777386608 | -3.89° C | 17% | 1018 hPa | 0 mm | - | - | - |
* Rain latest hour (hover to see other rain measurements)
** Current wind speed in m/s (hover to see current wind gust speed)